DMSP 5D-2 F13 DEB, 40473

Orbit data source: Space-Track

DMSP 5D-2 F13 DEB, 40473 is space debris in SSO originally from a launch on Fri, 24 Mar 1995 UTC launched from the Air Force Western Test Range (AFWTR). Debris objects in space refer to the collection of defunct objects orbiting the Earth. Examples of debris include non-operational satellites, rocket bodies, and fragments generated from explosions, collisions, or faulty payload assembly.

Loading next visibility...
Identifier
40473, 1995-015BR
Orbit
SSO
Country
Flag of USUS
Related business
Manufacturer
Unknown
Mission
Spacecraft
Bus & Motor
Unknown
Mass
Unknown
Launch date (UTC)
1995-03-24 (31 years ago)
Launch vehicle
Unknown
Launch site
Air Force Western Test Range (AFWTR)
Object type
Payload
Rocket body
Debris
Shape & HBR
Unknown shape, 0.1 m
Radar Cross Section
Medium (>0.1 m² and <1 m²)

Expand to show TLE details & history
Last TLE update: 1 week ago

TLE from 1 week ago
0 DMSP 5D-2 F13 DEB
1 40473U 95015BR  26247.82562122  .00001114  00000-0  73457-3 0  9993
2 40473  98.7046  86.7557 0121367 151.7839 208.9973 14.00156085583707
Epoch: 2026-09-04T19:48Z
TLE epoch observation values (Epoch: 2026-09-04T19:48:53.673Z)
Latitude
-0.00001°
Longitude
165.58818°
Altitude
973.594 km
Speed
7.326 km/s
True Right ascension
05h 47m 01s
True Declination
0° 00' 00"
Sunlit
Object was in daylight at epoch
Visualization orbit readout
Latitude
Unknown
Longitude
Unknown
Altitude
Unknown
Speed
Unknown
Apparent Right ascension
Unknown
Apparent Declination
Unknown
Sunlit
N/A
Visualization observer readout
Local Sidereal Time
09:24:11
Azimuth
Unknown
Elevation
Unknown
Doppler factor
Unknown
Orbital elements
Apogee altitude
978.656 km
Perigee altitude
802.223 km
Semi-major axis
7,268.576 km
Eccentricity
0.01214
Inclination
98.7046°
RAAN
86.7557°
Arg. of periapsis
151.7839°
True anomaly
208.33195°
Mean anomaly
208.9973°
Eccentric anomaly
208.66375°
Mean motion
3.50243 °/min
Orbital period
102.79 mins
BSTAR
0.00073457
Loading maneuver chart data...
Computing Atmospheric mass density...

Documentation

Showing up to 5 results
|